Regional Weather Roundup
Issued by NWS

Home | Current Version | Previous Version | Graphics & Text | Print | Product List | Glossary On
Versions: 1 2 3 4 5 6 7 8 9 10 11 12 13 14 15 16 17 18 19 20 21 22 23 24 25 26 27 28 29 30 31 32 33 34 35 36 37 38 39 40 41 42 43 44 45 46 47 48 49 50
532
ASUS43 KLOT 090708
RWRIL

ILLINOIS REGIONAL WEATHER ROUNDUP
NATIONAL WEATHER SERVICE CHICAGO/ROMEOVILLE IL
100 AM CST TUE FEB 09 2016

NOTE: "FAIR" INDICATES FEW OR NO CLOUDS BELOW 12,000 FEET WITH NO
SIGNIFICANT WEATHER AND/OR OBSTRUCTIONS TO VISIBILITY.

* THESE STATIONS ARE NOT UNDER NWS QUALITY CONTROL. THEY ALSO MAY NOT
  REPORT WEATHER SUCH AS PRECIPITATION OR FOG.

ILZ001-002-007-009-015-016-024-090800-
NORTHWEST ILLINOIS

CITY           SKY/WX    TMP DP  RH WIND       PRES   REMARKS
MOLINE         LGT SNOW  17  11  77 NW15      29.86R WCI   2
STERLING*      CLOUDY    18   9  68 NW16      29.79S WCI   3
SAVANNA*       LGT SNOW  16  11  80 NW10      29.84S WCI   4
$$

ILZ003-004-008-010-011-017-018-090800-
NORTH CENTRAL ILLINOIS

CITY           SKY/WX    TMP DP  RH WIND       PRES   REMARKS
ROCKFORD       FLURRIES  18  11  74 NW14      29.79F WCI   4
FREEPORT*      FLURRIES  16  10  77 NW16      29.81S WCI   0
ROCHELLE*      CLOUDY    19  12  76 NW12G18   29.79S WCI   6
DE KALB*       CLOUDY    19  12  74 NW13      29.75F WCI   6
$$

ILZ005-006-012>014-019>023-090800-
NORTHEAST ILLINOIS

CITY           SKY/WX    TMP DP  RH WIND       PRES   REMARKS
CHICAGO-OHARE  FLURRIES  20  15  81 NW14      29.72F WCI   7
CHICAGO-MIDWAY LGT SNOW  22  16  78 NW10      29.73F VSB 1   WCI  11
AURORA         LGT SNOW  21  14  74 NW17      29.76S WCI   7
LANSING*       LGT SNOW  22  19  87 W9        29.73S WCI  12
JOLIET*        CLOUDY    24  17  74 W8        29.76S WCI  15
WAUKEGAN       LGT SNOW  19  15  84 NW10      29.71F FOG     WCI   7
DUPAGE AIRPORT LGT SNOW  19  13  77 NW15      29.73F WCI   5
KANKAKEE*      LGT SNOW  23  19  83 W8        29.76S WCI  14
WHEELING       FLURRIES  19  14  81 NW15      29.74F WCI   5
MORRIS*        FLURRIES  22  16  76 NW12G18   29.75R WCI  11
ROMEOVILLE*    DRIZZLE   22  15  76 NW13      29.75S WCI  10
NORTHERLY ISL    N/A     22  17  81 NW13        N/A  WCI  10
$$

LMZ740>746-090800-
SOUTHERN LAKE MICHIGAN

STATION/POSITION SKY/WX   TEMP    WIND        PRES    VSBY  WAVE
                          AIR SEA DIR/SP/G                  HT/PER
                          (F)     (DEG/KT/KT) (MB)    (MI)  (FT/S)
HARRISON CRIB              23     290/ 15/ 18   N/A
BURNHAM HARBOR             22     270/  9/ 15   N/A
CALUMET HARBOR             22     270/  9/ 14 1006.3F
BURNS HARBOR               25     300/ 16/ 21 1006.8F
MICHIGAN CITY              25     250/ 20/ 23   N/A
$$

ILZ025>027-034>036-040-047-049-050-058-095>099-090800-
WEST-CENTRAL ILLINOIS

CITY           SKY/WX    TMP DP  RH WIND       PRES   REMARKS
QUINCY         LGT SNOW  18  13  80 NW15      29.91S WCI   4
GALESBURG*     LGT SNOW  16  13  88 NW16      29.85S WCI   1
MACOMB*        LGT SNOW  17  15  90 NW16      29.90S WCI   2
JACKSONVILLE*  LGT SNOW  21  14  76 W16G22    29.88S WCI   7
PITTSFIELD*    LGT SNOW  19  15  84 NW13G20   29.91S WCI   6
$$

ILZ028>032-037-038-041>044-048-051>054-059>061-090800-
CENTRAL ILLINOIS

CITY           SKY/WX    TMP DP  RH WIND       PRES   REMARKS
PONTIAC        CLOUDY    21  15  78 W17       29.79F WCI   7
BLOOMINGTON    FLURRIES  18  13  80 NW14      29.80F WCI   4
DECATUR        FLURRIES  19  11  70 W15       29.83F WCI   5
PEORIA         CLOUDY    18   9  68 NW12      29.84S WCI   5
LACON*         CLOUDY    18  10  69 NW14      29.82S WCI   4
LINCOLN*       CLOUDY    19  12  73 W10G17    29.84S WCI   8
SPRINGFIELD    CLOUDY    20  12  71 NW10      29.86F WCI   9
TAYLORVILLE    CLOUDY    19  12  73 W14       29.86F WCI   6
$$

ILZ033-039-045-046-055>057-062-063-090800-
EAST-CENTRAL ILLINOIS

CITY           SKY/WX    TMP DP  RH WIND       PRES   REMARKS
CHAMPAIGN      CLOUDY    19  13  77 W18       29.80S WCI   4
RANTOUL*       CLOUDY    21  15  79 W16       29.79S WCI   7
MATTOON        LGT SNOW  18  13  80 W16       29.81F WCI   3
PARIS*         LGT SNOW  20  17  88 W14       29.81S WCI   7
$$

ILZ079-100>102-090800-
SOUTHWEST ILLINOIS

CITY           SKY/WX    TMP DP  RH WIND       PRES   REMARKS
ALTON          FLURRIES  20  13  73 W20G25    29.91S WCI   5
BELLEVILLE     CLOUDY    23  12  64 NW14G23   29.89F WCI  10
CAHOKIA*       CLOUDY    23  11  60 NW20      29.92S WCI   8
SPARTA*        CLOUDY    23  13  67 W13       29.91F WCI  11
$$

ILZ064>066-069>071-074>076-080>082-084>086-088>090-092>094-090800-
SOUTH-CENTRAL ILLINOIS

CITY           SKY/WX    TMP DP  RH WIND       PRES   REMARKS
CARBONDALE     CLOUDY    24  14  65 NW14      29.90F WCI  12
CAIRO*         CLOUDY    28  19  69 NW12      29.91F WCI  18
EFFINGHAM*     LGT SNOW  19  17  88 W9        29.87F WCI   9
MARION         LGT SNOW  25  18  74 NW6       29.91S WCI  18
MT. VERNON     CLOUDY    19  10  68 W5        29.88F WCI  13
CENTRALIA*     FLURRIES  22  16  76 NW14G20   29.88S WCI   9
SALEM*         FLURRIES  22  14  70 NW12G18   29.88S WCI  10
METROPOLIS*    LGT SNOW  26  21  80 NW7       29.91F WCI  19
$$

ILZ067-068-072-073-078-083-087-091-090800-
SOUTHEAST ILLINOIS

CITY           SKY/WX    TMP DP  RH WIND       PRES   REMARKS
LAWRENCEVILLE  LGT SNOW  21  16  81 W15       29.85F WCI   8
FLORA*         FLURRIES  22  17  80 W9        29.88S WCI  12
FAIRFIELD*     FLURRIES  21  15  78 W5        29.87F WCI  15
HARRISBURG*    LGT SNOW  22  19  90 NW6       29.91S WCI  14
ROBINSON*      FLURRIES  19  14  80 W13       29.85F WCI   6
CARMI*         FLURRIES  21  16  80 W16       29.89S WCI   7
$$

ABBREVIATIONS USED IN REMARKS
   TC - TEMPERATURE IN CELSIUS
  WCI - WIND CHILL INDEX
   HX - HEAT INDEX
  VSB - VISIBILITY
$$





USA.gov is the U.S. government's official web portal to all federal, state and local government web resources and services.